W5TTY Weather Reports


time (UTC)temp
C
wind
direction
speed
KPH
gust
KPH
rain 1hr
cm
rain 24hr
cm
rain mn
cm
humidity
%
barometer
mb
20260831122834 23 215 0.0 3.2 0.00 0.00 0.00 76 1016.0
20260831122318 23 215 1.6 3.2 0.00 0.00 0.00 76 1015.8
20260831121832 23 216 0.0 0.0 0.00 0.00 0.00 76 1015.7
20260831121337 23 216 0.0 0.0 0.00 0.00 0.00 76 1015.6
20260831120826 23 216 0.0 0.0 0.00 0.00 0.00 76 1015.6
20260831120334 23 216 0.0 1.6 0.00 0.00 0.00 75 1015.5
20260831115823 23 216 0.0 3.2 0.00 0.00 0.00 75 1015.5
20260831115325 23 216 0.0 4.8 0.00 0.00 0.00 75 1015.5
20260831114841 24 216 3.2 4.8 0.00 0.00 0.00 75 1015.5
20260831114347 24 215 3.2 4.8 0.00 0.00 0.00 75 1015.5
20260831113842 24 215 1.6 4.8 0.00 0.00 0.00 75 1015.5
20260831113331 24 215 1.6 4.8 0.00 0.00 0.00 75 1015.5
20260831112822 24 215 3.2 4.8 0.00 0.00 0.00 74 1015.4
20260831112327 24 215 3.2 6.4 0.00 0.00 0.00 74 1015.4
20260831111839 24 214 3.2 6.4 0.00 0.00 0.00 74 1015.4
20260831111325 24 214 4.8 6.4 0.00 0.00 0.00 74 1015.3
20260831110830 24 213 3.2 6.4 0.00 0.00 0.00 74 1015.2
20260831110318 24 214 4.8 8.0 0.00 0.00 0.00 74 1015.2
20260831030828 28 163 6.4 12.9 0.00 0.00 0.00 51 1014.1
20260831030331 28 171 6.4 11.3 0.00 0.00 0.00 51 1014.0
20260831025826 28 172 4.8 9.7 0.00 0.00 0.00 51 1013.9
20260831025401 28 182 4.8 6.4 0.00 0.00 0.00 50 1013.8
20260831024844 28 178 3.2 6.4 0.00 0.00 0.00 50 1013.6
20260831024326 29 178 4.8 6.4 0.00 0.00 0.00 50 1013.5
20260831023828 29 171 4.8 9.7 0.00 0.00 0.00 49 1013.4
20260831023333 29 184 4.8 9.7 0.00 0.00 0.00 49 1013.4
20260831022838 29 177 4.8 8.0 0.00 0.00 0.00 49 1013.3
20260831022340 30 180 4.8 6.4 0.00 0.00 0.00 49 1013.2
20260831021831 30 176 3.2 6.4 0.00 0.00 0.00 48 1013.2
20260831021329 30 178 3.2 6.4 0.00 0.00 0.00 48 1013.2
20260831020835 30 175 4.8 6.4 0.00 0.00 0.00 48 1013.1
20260831020320 30 171 4.8 6.4 0.00 0.00 0.00 48 1013.1
20260831015826 31 162 3.2 8.0 0.00 0.00 0.00 48 1013.0
20260831015327 31 163 3.2 8.0 0.00 0.00 0.00 48 1013.0
20260831014828 31 164 3.2 8.0 0.00 0.00 0.00 48 1012.9
20260831014335 31 166 4.8 8.0 0.00 0.00 0.00 47 1012.8
20260831013846 31 161 3.2 8.0 0.00 0.00 0.00 47 1012.9
20260831013327 31 158 3.2 11.3 0.00 0.00 0.00 47 1012.8
20260831012833 32 157 4.8 11.3 0.00 0.00 0.00 47 1012.8
20260831012335 32 142 4.8 12.9 0.00 0.00 0.00 47 1012.8
20260831011907 32 142 6.4 12.9 0.00 0.00 0.00 47 1012.8
20260831011329 32 163 6.4 12.9 0.00 0.00 0.00 47 1012.7
20260831010834 32 150 6.4 14.5 0.00 0.00 0.00 46 1012.7
20260831010320 32 129 6.4 14.5 0.00 0.00 0.00 46 1012.7
20260831005827 33 122 6.4 12.9 0.00 0.00 0.00 46 1012.7
20260831005330 33 153 4.8 11.3 0.00 0.00 0.00 46 1012.7
20260831004834 33 129 6.4 12.9 0.00 0.00 0.00 46 1012.6
20260831004321 33 133 6.4 14.5 0.00 0.00 0.00 46 1012.5
20260831003828 33 148 8.0 14.5 0.00 0.00 0.00 46 1012.5
20260831003327 33 121 6.4 12.9 0.00 0.00 0.00 46 1012.5
20260831002834 34 140 6.4 12.9 0.00 0.00 0.00 46 1012.4
20260831002335 34 129 6.4 12.9 0.00 0.00 0.00 46 1012.5
20260831001817 34 143 6.4 12.9 0.00 0.00 0.00 46 1012.5
20260831001330 34 109 6.4 12.9 0.00 0.00 0.00 46 1012.6
20260831000859 35 194 8.0 17.7 0.00 0.00 0.00 46 1012.5
20260831000325 35 174 8.0 17.7 0.00 0.00 0.00 46 1012.6
20260830235826 35 123 9.7 17.7 0.00 0.00 0.00 46 1012.6
20260830235328 35 141 9.7 19.3 0.00 0.00 0.00 46 1012.6
20260830234839 35 97 9.7 19.3 0.00 0.00 0.00 46 1012.5
20260830234327 35 178 9.7 17.7 0.00 0.00 0.00 46 1012.6
20260830233831 35 123 6.4 20.9 0.00 0.00 0.00 47 1012.5
20260830233337 35 88 12.9 20.9 0.00 0.00 0.00 47 1012.5
20260830232851 36 188 11.3 24.1 0.00 0.00 0.00 47 1012.5
20260830232349 36 180 12.9 24.1 0.00 0.00 0.00 47 1012.5
20260830231835 36 105 9.7 22.5 0.00 0.00 0.00 47 1012.5
20260830231338 36 109 11.3 20.9 0.00 0.00 0.00 48 1012.5
20260830230829 36 177 9.7 19.3 0.00 0.00 0.00 48 1012.5
20260830230335 36 128 3.2 17.7 0.00 0.00 0.00 48 1012.4
20260830225822 36 166 11.3 19.3 0.00 0.00 0.00 48 1012.5
20260830225325 36 140 8.0 19.3 0.00 0.00 0.00 49 1012.5
20260830224829 36 171 9.7 17.7 0.00 0.00 0.00 49 1012.5
20260830224335 36 153 9.7 24.1 0.00 0.00 0.00 49 1012.6
20260830223821 36 148 6.4 20.9 0.00 0.00 0.00 50 1012.7
20260830223327 36 130 4.8 19.3 0.00 0.00 0.00 50 1012.7
20260830222833 36 159 11.3 19.3 0.00 0.00 0.00 51 1012.7
20260830222337 36 186 9.7 16.1 0.00 0.00 0.00 51 1012.7
20260830221823 36 186 3.2 24.1 0.00 0.00 0.00 51 1012.7
20260830221329 36 111 14.5 24.1 0.00 0.00 0.00 52 1012.7
20260830220858 36 143 9.7 22.5 0.00 0.00 0.00 52 1012.7
20260830220338 36 174 12.9 20.9 0.00 0.00 0.00 52 1012.8
20260830215823 36 138 8.0 16.1 0.00 0.00 0.00 53 1012.9
20260830215322 36 150 6.4 19.3 0.00 0.00 0.00 53 1012.9
20260830214824 36 167 9.7 19.3 0.00 0.00 0.00 54 1013.0
20260830214335 36 111 6.4 12.9 0.00 0.00 0.00 54 1013.0
20260830213841 36 200 6.4 25.7 0.00 0.00 0.00 55 1013.1
20260830213328 36 165 12.9 25.7 0.00 0.00 0.00 55 1013.1
20260830212830 36 151 6.4 19.3 0.00 0.00 0.00 55 1013.2
20260830212330 36 205 4.8 16.1 0.00 0.00 0.00 56 1013.2
20260830211836 36 151 8.0 17.7 0.00 0.00 0.00 57 1013.2
20260830211349 36 126 6.4 17.7 0.00 0.00 0.00 57 1013.3
20260830210845 36 217 11.3 17.7 0.00 0.00 0.00 57 1013.3
20260830210328 35 192 8.0 20.9 0.00 0.00 0.00 58 1013.3
20260830205836 35 150 9.7 20.9 0.00 0.00 0.00 58 1013.4
20260830205347 35 186 8.0 17.7 0.00 0.00 0.00 58 1013.5
20260830204829 35 227 9.7 17.7 0.00 0.00 0.00 59 1013.5
20260830204355 36 179 4.8 25.7 0.00 0.00 0.00 59 1013.7
20260830203819 36 200 9.7 25.7 0.00 0.00 0.00 60 1013.7
20260830203321 36 105 9.7 29.0 0.00 0.00 0.00 61 1013.8
20260830202833 35 126 9.7 29.0 0.00 0.00 0.00 61 1013.8
20260830202335 35 178 3.2 24.1 0.00 0.00 0.00 62 1014.0
20260830201822 35 176 11.3 24.1 0.00 0.00 0.00 63 1014.0
20260830201327 35 238 6.4 20.9 0.00 0.00 0.00 62 1014.2
20260830200833 35 109 11.3 20.9 0.00 0.00 0.00 63 1014.2
20260830200338 35 127 12.9 20.9 0.00 0.00 0.00 64 1014.3
20260830195824 35 128 11.3 19.3 0.00 0.00 0.00 64 1014.4
20260830195323 35 144 9.7 19.3 0.00 0.00 0.00 65 1014.5
20260830194850 35 200 8.0 24.1 0.00 0.00 0.00 65 1014.6
20260830194336 35 118 8.0 16.1 0.00 0.00 0.00 65 1014.6
20260830193823 35 135 9.7 14.5 0.00 0.00 0.00 66 1014.6
20260830193354 35 135 3.2 17.7 0.00 0.00 0.00 67 1014.7
20260830192839 35 134 8.0 17.7 0.00 0.00 0.00 67 1014.8
20260830192343 35 155 8.0 16.1 0.00 0.00 0.00 68 1014.8
20260830191829 34 153 9.7 16.1 0.00 0.00 0.00 69 1014.9
20260830191332 34 134 8.0 16.1 0.00 0.00 0.00 69 1015.0
20260830190836 34 165 8.0 16.1 0.00 0.00 0.00 69 1015.0
20260830190322 34 186 8.0 19.3 0.00 0.00 0.00 70 1015.2
20260830185828 34 121 9.7 19.3 0.00 0.00 0.00 70 1015.3
20260830185329 33 172 8.0 14.5 0.00 0.00 0.00 71 1015.4
20260830184835 33 185 6.4 14.5 0.00 0.00 0.00 71 1015.5
20260830184406 33 302 4.8 16.1 0.00 0.00 0.00 72 1015.5
20260830183849 33 230 8.0 16.1 0.00 0.00 0.00 72 1015.7
20260830183333 33 150 8.0 16.1 0.00 0.00 0.00 73 1015.7
20260830182840 33 190 6.4 22.5 0.00 0.00 0.00 73 1015.8
20260830182353 33 184 9.7 22.5 0.00 0.00 0.00 73 1016.0
20260830181836 33 190 9.7 17.7 0.00 0.00 0.00 73 1016.0
20260830181344 33 57 4.8 16.1 0.00 0.00 0.00 74 1016.1
20260830180825 33 215 6.4 16.1 0.00 0.00 0.00 75 1016.2
20260830180336 33 196 9.7 22.5 0.00 0.00 0.00 75 1016.3
20260830175840 32 121 8.0 22.5 0.00 0.00 0.00 76 1016.3
20260830175344 32 165 4.8 17.7 0.00 0.00 0.00 76 1016.4
20260830174825 32 163 8.0 17.7 0.00 0.00 0.00 77 1016.5
20260830174329 32 147 4.8 17.7 0.00 0.00 0.00 77 1016.5
20260830173835 32 112 4.8 19.3 0.00 0.00 0.00 77 1016.5
20260830173318 32 209 9.7 19.3 0.00 0.00 0.00 78 1016.7
20260830172851 32 147 6.4 19.3 0.00 0.00 0.00 78 1016.7
20260830172400 32 180 14.5 19.3 0.00 0.00 0.00 79 1016.8
20260830171843 32 261 9.7 16.1 0.00 0.00 0.00 79 1016.8
20260830171349 32 127 8.0 16.1 0.00 0.00 0.00 79 1017.0
20260830170829 32 155 3.2 16.1 0.00 0.00 0.00 80 1017.1
20260830170402 31 200 9.7 17.7 0.00 0.00 0.00 80 1017.2
20260830165820 31 207 8.0 19.3 0.00 0.00 0.00 80 1017.2
20260830165330 31 177 9.7 19.3 0.00 0.00 0.00 80 1017.3
20260830164833 31 242 4.8 17.7 0.00 0.00 0.00 81 1017.3
20260830164319 31 242 8.0 19.3 0.00 0.00 0.00 81 1017.3
20260830163824 31 209 12.9 19.3 0.00 0.00 0.00 81 1017.3
20260830163328 31 219 11.3 20.9 0.00 0.00 0.00 82 1017.3
20260830162834 31 190 4.8 14.5 0.00 0.00 0.00 82 1017.3
20260830162405 31 237 6.4 20.9 0.00 0.00 0.00 82 1017.2
20260830161818 31 234 11.3 20.9 0.00 0.00 0.00 82 1017.3
20260830161350 31 219 9.7 27.4 0.00 0.00 0.00 83 1017.3
20260830160834 30 229 6.4 27.4 0.00 0.00 0.00 83 1017.3
20260830160339 30 239 9.7 22.5 0.00 0.00 0.00 83 1017.3
20260830155850 30 238 4.8 22.5 0.00 0.00 0.00 83 1017.3
20260830155333 30 254 8.0 22.5 0.00 0.00 0.00 83 1017.3
20260830154858 30 209 11.3 17.7 0.00 0.00 0.00 83 1017.4
20260830154339 30 263 6.4 12.9 0.00 0.00 0.00 83 1017.3
20260830153843 29 238 3.2 16.1 0.00 0.00 0.00 83 1017.3
20260830153324 29 156 9.7 20.9 0.00 0.00 0.00 83 1017.3
20260830152828 29 240 11.3 20.9 0.00 0.00 0.00 83 1017.4
20260830152328 29 216 8.0 24.1 0.00 0.00 0.00 83 1017.3
20260830151834 28 219 8.0 24.1 0.00 0.00 0.00 83 1017.3
20260830151339 28 238 9.7 22.5 0.00 0.00 0.00 83 1017.3
20260830150830 28 251 14.5 22.5 0.00 0.00 0.00 83 1017.2
20260830150335 28 195 6.4 19.3 0.00 0.00 0.00 83 1017.2
20260830145823 28 214 8.0 19.3 0.00 0.00 0.00 83 1017.1
20260830145326 28 223 4.8 19.3 0.00 0.00 0.00 83 1017.2
20260830144829 27 246 8.0 22.5 0.00 0.00 0.00 83 1017.2
20260830144331 27 255 12.9 22.5 0.00 0.00 0.00 83 1017.2
20260830143818 27 217 11.3 19.3 0.00 0.00 0.00 83 1017.2
20260830143319 27 230 9.7 29.0 0.00 0.00 0.00 82 1017.2
20260830142821 27 228 11.3 29.0 0.00 0.00 0.00 82 1017.2
20260830142330 27 215 9.7 20.9 0.00 0.00 0.00 82 1017.1
20260830141836 27 210 9.7 24.1 0.00 0.00 0.00 82 1017.1
20260830141343 27 232 9.7 19.3 0.00 0.00 0.00 82 1017.2
20260830140827 26 177 11.3 17.7 0.00 0.00 0.00 81 1017.1
20260830140329 26 207 11.3 19.3 0.00 0.00 0.00 81 1017.2
20260830135830 26 229 8.0 22.5 0.00 0.00 0.00 81 1017.2
20260830135334 26 198 8.0 24.1 0.00 0.00 0.00 81 1017.2
20260830134819 26 223 9.7 22.5 0.00 0.00 0.00 81 1017.2
20260830134321 26 217 6.4 14.5 0.00 0.00 0.00 81 1017.2
20260830133832 25 234 9.7 14.5 0.00 0.00 0.00 81 1017.2
20260830133356 25 219 6.4 9.7 0.00 0.00 0.00 80 1017.2